Overview Statistics Trail Chart Weather Telemetry Raw packets
 

This is the latest recevied weather packets stored in our database for station/object PU5FJO-13. If no packets are shown the sender has not sent any weather packets the latest 10 day(s).

<< 15 16 17 18 19 20 21 >>
Time Temp. Humidity Pressure Rain* Wind** Luminosity Snow
1777578368 23.89° C 67% 1018.2 hPa - - - -
1777577768 23.33° C 68% 1018.1 hPa - - - -
1777577168 23.89° C 66% 1018.2 hPa - - - -
1777576568 23.89° C 66% 1018.1 hPa - - - -
1777575968 23.89° C 66% 1018 hPa - - - -
1777575368 23.89° C 66% 1018 hPa - - - -
1777574771 23.89° C 66% 1017.9 hPa - - - -
1777574168 23.89° C 66% 1017.9 hPa - - - -
1777573568 23.89° C 67% 1017.9 hPa - - - -
1777572968 24.44° C 67% 1017.9 hPa - - - -
1777572368 23.89° C 67% 1017.7 hPa - - - -
1777571768 23.89° C 67% 1017.7 hPa - - - -
1777571168 23.89° C 64% 1017.7 hPa - - - -
1777570568 23.89° C 65% 1017.8 hPa - - - -
1777569968 23.89° C 67% 1017.8 hPa - - - -
1777569368 23.33° C 65% 1017.9 hPa - - - -
1777568768 23.33° C 69% 1018 hPa - - - -
1777568168 23.89° C 66% 1017.9 hPa - - - -
1777567568 23.89° C 67% 1018 hPa - - - -
1777566968 23.33° C 67% 1018 hPa - - - -
1777566368 23.89° C 66% 1018.1 hPa - - - -
1777565768 23.33° C 66% 1018.1 hPa - - - -
1777565168 23.33° C 67% 1018.4 hPa - - - -
1777564568 23.33° C 65% 1018.4 hPa - - - -
1777563968 23.89° C 67% 1018.4 hPa - - - -

* Rain since midnight (hover to see other rain measurements)
** Current wind speed in m/s (hover to see current wind gust speed)